DIRECTV 8

Last updated on Fri Jul 10 2026 00:03:01 GMT+0000 (Coordinated Universal Time)

1 28659U 05019A 26190.04628829 .00000015 00000+0 00000+0 0 9996 2 28659 0.0150 59.8067 0003103 62.1509 62.6496 1.00271925 77298
UTC large
Height (km)
Speed (km/s)
/
Latitude / Longitude
Inclination (degrees)
Orbital Period (minutes)
Azimuth
Elevation
Range (km)
Doppler Factor

Next 0 passes for location: London (51.5072 / 0.1276)

No passes found over London.
DIRECTV 8